This is the latest recevied weather packets stored in our database for station/object N7MLR. If no packets are shown the sender has not sent any weather packets the latest 10 day(s).
| Time | Temp. | Humidity | Pressure | Rain* | Wind** | Luminosity | Snow |
|---|---|---|---|---|---|---|---|
| 1778096088 | 27.22° C | 75% | 1010.2 hPa | 0 mm | - | 48 W/m² | - |
| 1778095785 | 27.22° C | 74% | 1010.2 hPa | 0 mm | - | 72 W/m² | - |
| 1778095482 | 27.22° C | 74% | 1009.9 hPa | 0 mm | - | 88 W/m² | - |
| 1778095179 | 27.22° C | 74% | 1010.2 hPa | 0 mm | - | 97 W/m² | - |
| 1778094875 | 27.78° C | 74% | 1010.1 hPa | 0 mm | - | 114 W/m² | - |
| 1778094572 | 27.78° C | 73% | 1010.2 hPa | 0 mm | - | 151 W/m² | - |
| 1778094269 | 27.78° C | 74% | 1010.4 hPa | 0 mm | - | 196 W/m² | - |
| 1778093966 | 27.78° C | 73% | 1010.4 hPa | 0 mm | - | 203 W/m² | - |
| 1778093663 | 27.78° C | 71% | 1010.2 hPa | 0 mm | - | 289 W/m² | - |
| 1778093360 | 28.33° C | 71% | 1010.5 hPa | 0 mm | - | 344 W/m² | - |
| 1778093056 | 28.33° C | 71% | 1010.5 hPa | 0 mm | - | 271 W/m² | - |
| 1778092754 | 28.33° C | 71% | 1010.5 hPa | 0 mm | - | 236 W/m² | - |
| 1778092449 | 28.33° C | 71% | 1010.4 hPa | 0 mm | - | 280 W/m² | - |
| 1778092147 | 28.33° C | 71% | 1010.5 hPa | 0 mm | - | 462 W/m² | - |
| 1778091844 | 28.33° C | 70% | 1010.3 hPa | 0 mm | - | 730 W/m² | - |
| 1778091541 | 28.89° C | 71% | 1010.5 hPa | 0 mm | - | 747 W/m² | - |
| 1778091239 | 28.89° C | 71% | 1010.8 hPa | 0 mm | - | 727 W/m² | - |
| 1778090936 | 28.89° C | 71% | 1010.7 hPa | 0 mm | - | 723 W/m² | - |
| 1778090631 | 28.33° C | 70% | 1010.8 hPa | 0 mm | - | 752 W/m² | - |
| 1778090328 | 28.89° C | 72% | 1010.6 hPa | 0 mm | - | 739 W/m² | - |
| 1778090025 | 28.33° C | 70% | 1010.8 hPa | 0 mm | - | 752 W/m² | - |
| 1778089722 | 27.78° C | 73% | 1010.7 hPa | 0 mm | - | 724 W/m² | - |
| 1778089420 | 26.67° C | 75% | 1011.2 hPa | 0 mm | - | 828 W/m² | - |
| 1778089117 | 26.67° C | 75% | 1010.7 hPa | 0 mm | - | 449 W/m² | - |
| 1778088813 | 25.56° C | 76% | 1010.9 hPa | 0 mm | - | 747 W/m² | - |
* Rain latest hour (hover to see other rain measurements)
** Current wind speed in m/s (hover to see current wind gust speed)